Weather History for Cheyenne, WY

Change the Weather History Date:

Sunday, February 17, 2013

  Actual Average Record
Temperature  
Mean Temperature 38 °F 30 °F  
Max Temperature 53 °F 41 °F 64 °F (1943)
Min Temperature 23 °F 19 °F -19 °F (2006)
Degree Days  
Heating Degree Days 27 35  
Month to date heating degree days 604 619  
Since 1 July heating degree days 4455 4646  
Cooling Degree Days 0 0  
Month to date cooling degree days 0 0  
Year to date cooling degree days 0 0  
Moisture  
Dew Point 8 °F    
Average Humidity 45    
Maximum Humidity 81    
Minimum Humidity 9    
Precipitation  
Precipitation T in 0.01 in 0.46 in (1897)
Month to date precipitation 0.20 0.24  
Year to date precipitation 0.44 0.57  
Snow  
Snow T in 0.30 in 4.80 in (1897)
Month to date snowfall 3.3 4.5  
Since 1 July snowfall 32.1 33.1  
Snow Depth T in    
Sea Level Pressure  
Sea Level Pressure 29.71 in    
Wind  
Wind Speed 18 mph (WNW)    
Max Wind Speed 37 mph    
Max Gust Speed 47 mph    
Visibility 9 miles    
Events Snow    
T = Trace of Precipitation, MM = Missing Value Source: NWS Daily Summary

Daily Weather History Graph

Daily Weather History Graph

Search for Another Location

Airport:

Trip Planner

Search our weather history database for the weather conditions in past years. The results will help you decide how hot, cold, wet, or windy it might be!

Date:

Astronomy

Feb. 17, 2013 Rise Set
Actual Time 6:50 AM MST 5:36 PM MST
Civil Twilight 6:22 AM MST 6:04 PM MST
Nautical Twilight 5:50 AM MST 6:36 PM MST
Astronomical Twilight 5:18 AM MST 7:08 PM MST
Moon 10:41 AM MST (2/17) 12:38 AM MST (2/17)
Length of Visible Light 11h 41m
Length of Day
10h 45m
Waxing Crescent, 49% of the Moon is Illuminated
Feb 17
Waxing Crescent
Feb 17
First Quarter
Feb 25
Full
Mar 4
Last Quarter
Mar 11
New

Hourly Weather History & Observations

Time (MST) Temp. Windchill Dew Point Humidity Pressure Visibility Wind Dir Wind Speed Gust Speed Precip Events Conditions
12:53 AM 37.9 °F 27.9 °F 7.0 °F 28% 29.85 in 10.0 mi WSW 19.6 mph - N/A   Clear
1:53 AM 35.1 °F 25.5 °F 7.0 °F 31% 29.86 in 10.0 mi WSW 15.0 mph - N/A   Clear
2:53 AM 33.1 °F 23.9 °F 7.0 °F 34% 29.83 in 10.0 mi West 12.7 mph - N/A   Clear
3:53 AM 30.9 °F 22.2 °F 8.1 °F 38% 29.81 in 10.0 mi WSW 10.4 mph - N/A   Clear
4:53 AM 30.0 °F 21.7 °F 6.1 °F 36% 29.81 in 10.0 mi SW 9.2 mph - N/A   Clear
5:53 AM 34.0 °F 26.6 °F 3.9 °F 28% 29.81 in 10.0 mi WSW 9.2 mph - N/A   Clear
6:53 AM 32.0 °F 23.0 °F 3.0 °F 29% 29.81 in 10.0 mi West 11.5 mph - N/A   Clear
7:53 AM 37.9 °F 32.1 °F -0.9 °F 19% 29.77 in 10.0 mi West 8.1 mph - N/A   Clear
8:53 AM 39.9 °F 35.8 °F 1.9 °F 20% 29.74 in 10.0 mi South 5.8 mph - N/A   Clear
9:53 AM 46.0 °F 40.6 °F -2.9 °F 13% 29.65 in 10.0 mi SSW 11.5 mph - N/A   Clear
10:53 AM 50.0 °F - -6.0 °F 10% 29.62 in 10.0 mi WSW 18.4 mph 42.6 mph N/A   Clear
11:53 AM 51.1 °F - -6.0 °F 9% 29.59 in 10.0 mi West 31.1 mph 46.0 mph N/A   Clear
12:53 PM 52.0 °F - -4.0 °F 10% 29.54 in 10.0 mi West 31.1 mph 42.6 mph N/A   Clear
1:53 PM 51.1 °F - -5.1 °F 10% 29.54 in 10.0 mi West 34.5 mph 42.6 mph N/A   Clear
2:53 PM 48.9 °F - -2.9 °F 12% 29.55 in 10.0 mi West 28.8 mph 44.9 mph N/A   Clear
3:53 PM 46.9 °F - -0.9 °F 14% 29.56 in 10.0 mi WNW 26.5 mph 34.5 mph N/A   Clear
4:53 PM 39.9 °F 28.8 °F 15.1 °F 36% 29.62 in 10.0 mi NW 27.6 mph 40.3 mph N/A   Clear
5:53 PM 35.1 °F 22.2 °F 17.1 °F 48% 29.64 in 10.0 mi NW 27.6 mph 38.0 mph N/A   Clear
6:53 PM 32.0 °F 20.1 °F 12.9 °F 45% 29.72 in 10.0 mi NNW 19.6 mph 31.1 mph N/A   Clear
7:53 PM 30.0 °F 18.7 °F 14.0 °F 51% 29.73 in 10.0 mi NNW 16.1 mph 23.0 mph N/A   Clear
8:42 PM 26.6 °F 13.4 °F 21.2 °F 80% 29.73 in 10.0 mi North 18.4 mph 32.2 mph N/A   Scattered Clouds
8:53 PM 27.0 °F 13.5 °F 21.0 °F 78% 29.76 in 10.0 mi North 19.6 mph 27.6 mph N/A   Mostly Cloudy
10:35 PM 24.8 °F 11.5 °F 19.4 °F 80% 29.75 in 2.5 mi North 17.3 mph 28.8 mph 0.00 in Snow Light Snow
10:47 PM 24.8 °F 9.0 °F 19.4 °F 80% 29.74 in 3.0 mi North 25.3 mph 35.7 mph 0.00 in Snow Light Snow
10:53 PM 24.1 °F 9.0 °F 19.0 °F 81% 29.74 in 3.0 mi North 21.9 mph 35.7 mph 0.00 in Snow Light Snow
11:53 PM 23.0 °F 11.7 °F 18.0 °F 81% 29.76 in 10.0 mi North 11.5 mph 18.4 mph 0.00 in   Partly Cloudy